Location: Westminster
(33.3626°N, 96.4619°W)
Time: 21:30:55
(UTC+00:00)

Cosmos 1602 - Pass Details

Date: 03 December 2021
Orbit: 512 x 530 km, 82.5° (Epoch: 26 January)

Event Time Altitude Azimuth Distance (km) Brightness Sun altitude
Rises 23:49:55 0° 0° (N) 2,648 7.1 -6.9°
Reaches altitude 10° 23:52:07 10° 7° (N) 1,759 6.1 -7.3°
Maximum altitude 23:55:51 47° 82° (E) 703 4.0 -8.1°
Drops below altitude 10° 23:59:35 10° 156° (SSE) 1,759 6.4 -8.8°
Sets 00:01:46 0° 162° (SSE) 2,646 7.4 -9.2°
